Lid_Strength_Index
-1 -0 0 3 11 12 15 13 9 10 9 6 5 7 8 7 9 12 2 1 0 0 -0 -1 -2 -2 -1 -1 -1 -1 -1 -1 -2 -1 -1 -2 -1 -1 -2 -2 -2 -2 -1 -2 -1 -1 -1 -1 -1
-0 1 2 6 13 16 15 10 11 9 7 5 6 6 7 9 5 4 3 0 -0 -0 -0 -0 -1 -2 -1 -1 -1 -1 -1 -1 -1 -1 -1 -2 -1 -2 -2 -2 -2 -1 -2 -2 -2 -1 -1 -1 -1
0 1 7 10 13 16 15 10 9 7 6 6 7 5 7 8 4 3 1 0 -0 0 -0 -0 -1 -2 -1 -1 -1 -1 -1 -1 -1 -1 -2 -1 -2 -2 -1 -2 -2 -1 -2 -2 -1 -2 -1 -1 -1
2 4 6 12 14 11 11 9 7 8 7 6 6 8 5 3 3 2 1 0 0 0 -0 -1 -1 -1 -1 -1 -1 -1 -1 -1 -1 -1 -2 -1 -1 -2 -2 -2 -2 -2 -2 -2 -2 -2 -2 -2 -2
2 6 12 13 13 10 9 8 7 8 8 7 6 8 7 3 1 1 1 0 1 0 -0 -0 -1 -1 -1 -1 -1 -1 -2 -1 -2 -2 -1 -2 -2 -2 -2 -2 -2 -2 -2 -1 -2 -2 -2 -2 -2
7 7 13 15 13 10 9 7 7 8 7 7 7 7 7 2 2 1 1 1 -0 0 -0 -0 -1 -1 -1 -1 -1 -1 -2 -2 -1 -2 -1 -2 -2 -2 -2 -2 -2 -2 -2 -2 -1 -2 -1 -2 -2
8 10 13 12 13 12 10 7 8 8 8 8 5 9 6 4 2 1 1 0 -0 -0 0 -0 -0 -1 -1 -1 -1 -2 -2 -1 -1 -1 -2 -1 -2 -2 -2 -2 -2 -2 -1 -1 -1 -2 -2 -2 -2
6 9 12 12 13 12 8 8 6 7 8 4 4 9 8 4 1 1 1 1 1 0 0 -0 0 0 0 -0 -2 -1 -1 -1 -1 -1 -1 -2 -2 -2 -2 -2 -2 -1 -1 -1 -1 -1 -2 -1 -2
4 11 13 12 12 11 8 9 6 5 6 5 5 5 4 2 1 2 2 2 1 1 1 1 0 0 0 0 -1 -1 -1 -1 -1 -1 -1 -1 0 -0 -1 -1 -2 -1 -1 -1 -1 -1 -1 -2 -2
8 12 11 8 8 10 8 8 7 8 8 7 6 4 3 2 3 3 3 3 3 2 1 0 0 0 0 -0 0 0 -0 -0 -0 0 0 1 1 -0 -1 -1 -2 -1 -1 -1 -1 -1 -1 -1 -1
7 11 9 8 7 7 8 8 6 8 9 7 7 5 4 3 3 3 3 3 3 2 1 0 1 0 0 0 0 0 0 0 0 -0 2 1 0 1 -0 -0 -0 -0 -1 -0 -1 -1 -1 -1 -0
9 7 7 7 6 7 8 7 8 7 7 5 4 4 4 4 4 3 3 3 2 2 1 1 1 0 1 0 -0 0 -0 0 0 -0 0 0 0 2 -0 -0 -1 -0 0 1 -0 -0 -0 -0 -0
8 7 6 6 6 7 6 8 8 7 5 4 4 4 4 4 3 3 2 2 2 2 1 1 1 1 1 0 0 0 0 0 0 0 -0 -0 -0 -0 0 0 -0 -0 -0 -0 0 0 -0 -0 -0
6 6 6 7 7 7 8 8 7 6 5 5 5 5 4 4 3 3 3 3 2 2 1 1 1 1 0 0 0 0 1 0 1 1 0 -0 -0 0 1 0 0 0 0 -0 0 0 0 0 0
6 10 10 8 7 8 7 10 9 6 5 6 5 5 4 4 3 4 2 3 2 1 1 1 1 1 1 1 0 1 1 1 1 0 0 -0 -0 0 -1 1 1 0 1 0 0 1 1 1 1
9 12 14 9 8 7 8 13 9 6 6 7 6 5 5 4 4 3 2 2 1 1 1 1 0 1 1 1 1 2 0 0 -0 0 -0 -0 0 -0 0 0 0 -0 -0 0 0 1 1 1 2
12 13 13 12 7 9 9 12 9 6 6 7 6 6 5 4 4 3 2 2 2 1 1 1 1 1 1 1 0 1 0 0 0 0 0 2 0 -0 -0 -0 0 -0 0 0 0 1 2 1 2
13 13 13 13 12 9 11 11 9 7 7 7 6 6 5 5 4 3 2 2 1 1 1 2 1 1 1 1 1 1 2 1 0 0 0 -0 0 -0 -0 0 0 0 1 1 1 1 1 1 2
10 11 11 10 9 11 11 11 10 8 8 8 7 6 6 5 4 3 2 2 2 1 2 1 1 2 1 1 2 2 2 2 2 1 0 0 0 0 0 0 0 0 1 1 1 1 2 2 1
9 11 11 10 9 11 11 12 10 9 8 7 7 7 6 5 4 3 3 2 2 2 2 1 1 1 1 1 1 1 1 1 1 0 0 -0 -0 0 0 0 1 1 2 1 2 1 2 2 2
11 12 11 11 9 10 11 13 12 9 8 7 6 6 5 5 5 4 3 3 2 2 2 2 1 1 1 1 1 1 1 1 1 1 1 0 0 -0 1 0 1 0 0 1 1 1 2 3 2
13 9 9 9 12 14 10 17 13 11 10 8 7 7 6 5 5 4 4 3 3 2 1 1 1 1 1 1 1 2 2 3 2 1 1 1 0 0 -0 0 0 1 1 1 1 1 2 2 3
10 8 9 10 12 14 13 14 14 10 12 10 8 7 6 5 5 4 4 3 2 2 2 1 1 1 1 1 1 2 2 2 1 1 1 1 1 0 -0 0 0 0 1 1 1 1 1 2 3
7 9 11 12 14 16 14 15 15 13 11 9 7 7 6 5 5 4 3 3 3 2 2 2 2 1 1 1 2 1 2 2 2 3 2 2 1 1 0 0 0 0 1 1 1 1 1 1 1
10 13 16 16 17 17 15 15 14 10 8 8 8 7 6 5 5 4 4 4 4 3 2 2 2 2 1 1 1 1 1 2 2 3 2 2 2 1 1 1 0 1 1 1 0 1 1 1 1
12 13 16 18 18 16 13 15 13 8 7 6 6 6 5 5 5 4 4 3 4 3 2 2 2 2 1 1 1 1 1 1 1 1 1 1 1 1 1 1 0 0 1 1 0 1 1 1 1
11 14 12 15 15 16 14 12 9 8 8 7 7 7 6 6 5 4 4 3 3 3 2 2 2 2 2 1 1 2 1 1 1 1 2 1 1 1 1 0 0 0 0 0 0 1 1 1 1
12 11 14 15 17 19 15 14 13 12 10 9 8 7 6 5 5 4 4 3 3 3 2 2 2 2 2 1 1 1 1 1 2 1 1 2 1 1 1 0 0 1 0 1 0 1 1 1 1
13 14 14 14 15 17 17 15 10 10 10 9 8 6 6 6 5 4 4 3 3 2 2 2 2 2 2 1 1 1 1 1 1 1 1 1 2 1 1 1 0 1 1 1 1 1 1 1 1
11 14 15 16 16 15 16 15 8 8 8 8 8 7 6 5 5 5 4 4 3 3 2 2 2 2 2 1 1 1 1 1 1 2 1 1 1 0 0 0 0 1 1 1 1 1 1 1 1